"Pseudo-MPEC" for RdSH342

Created 2024 May 21 20:22:07 UT using Find_Orb

Click here for an explanation of pseudo-MPECs

 
 Astrometry: 
     RdSH342*KB2024 05 08jU8'h*j)Qyb=2ec9fBYAstrometrykqAJk4q5#Yredacted;XKaKY89
     RdSH342 KB2024 05 08kDUvDM_;_J$SclickkF2\q-,bAWRDj2V;heresWf?!u;yH:b%?;pY89
     RdSH342 KB2024 05 09?MR748yforUI+S9=/.k@t0vp%OrjZ_cuU(as6explanationSMEXY89

Station data:
(Y89) Proxima Centauri Observatory, Valdin  (N42.222443 W6.988110)  Spain.

Orbital elements:  RdSH342
   Perihelion 2023 Oct 17.59772 +/- 431 TT = 14:20:42 (JD 2460235.09772)
Epoch 2024 May  9.0 TT = JDT 2460439.5   Earth MOID: 0.1750   Ju: 0.3595
M  11.04562982 +/- 70               Ve: 0.0577   Sa: 0.0280      AutoNEOCP
n   0.05403868 +/- 0.126            Peri.    3.16017 +/- 80
a   6.92893074 +/- 10.7             Node    75.29398 +/- 59
e   0.9108000 +/- 0.251             Incl.   10.46535 +/- 46
P  18.24                   H 14.32  G  0.15   U 11.4  SR
q 0.61806040 +/- 1.3    Q 13.2398010 +/- 37.3             (J2000 ecliptic)
From 3 observations 2024 May 8-9 (42.1 min); mean residual 0".30
Residuals in arcseconds: 
240508 Y89  .20-  .22-    240508 Y89  .40+  .44+    240509 Y89  .20-  .22-    

Ephemerides (geocentric):
Date (UTC) HH   RA             Dec           delta  r     elong  mag " sig PA
---- --------  ------------   ------------  ------ ------ -----  --- --------
2024 05 21 20  13 32 38.231   +00 39 55.49  2.3752 3.2112 139.3 19.4 3035  77
2024 05 21 21  13 32 36.766   +00 39 53.37  2.3760 3.2117 139.3 19.4 3047  77
2024 05 21 22  13 32 35.305   +00 39 51.25  2.3768 3.2121 139.2 19.5 3060  77
2024 05 21 23  13 32 33.845   +00 39 49.11  2.3776 3.2125 139.2 19.5 3072  77
2024 05 22 00  13 32 32.389   +00 39 46.95  2.3784 3.2130 139.1 19.5 3085  77
2024 05 22 01  13 32 30.934   +00 39 44.78  2.3792 3.2134 139.1 19.5 3097  77
2024 05 22 02  13 32 29.483   +00 39 42.60  2.3801 3.2138 139.0 19.5 3110  77
2024 05 22 03  13 32 28.033   +00 39 40.40  2.3809 3.2143 139.0 19.5 3122  77
2024 05 22 04  13 32 26.587   +00 39 38.20  2.3817 3.2147 139.0 19.5 3135  77
2024 05 22 05  13 32 25.143   +00 39 35.97  2.3825 3.2151 138.9 19.5 3147  77
2024 05 22 06  13 32 23.701   +00 39 33.74  2.3833 3.2156 138.9 19.5 3160  77
2024 05 22 07  13 32 22.262   +00 39 31.49  2.3841 3.2160 138.8 19.5 3172  77
2024 05 22 08  13 32 20.825   +00 39 29.23  2.3850 3.2164 138.8 19.5 3185  77
2024 05 22 09  13 32 19.391   +00 39 26.95  2.3858 3.2169 138.7 19.5 3198  77
2024 05 22 10  13 32 17.960   +00 39 24.66  2.3866 3.2173 138.7 19.5 3210  77
2024 05 22 11  13 32 16.531   +00 39 22.36  2.3874 3.2177 138.7 19.5 3223  77
2024 05 22 12  13 32 15.104   +00 39 20.04  2.3882 3.2182 138.6 19.5 3235  77
2024 05 22 13  13 32 13.680   +00 39 17.71  2.3891 3.2186 138.6 19.5 3248  77
2024 05 22 14  13 32 12.259   +00 39 15.37  2.3899 3.2190 138.5 19.5 3261  77
2024 05 22 15  13 32 10.840   +00 39 13.01  2.3907 3.2194 138.5 19.5 3274  77
2024 05 22 16  13 32 09.424   +00 39 10.64  2.3915 3.2199 138.4 19.5 3286  77
2024 05 22 17  13 32 08.010   +00 39 08.26  2.3923 3.2203 138.4 19.5 3299  77
2024 05 22 18  13 32 06.599   +00 39 05.87  2.3932 3.2207 138.4 19.5 3312  77
2024 05 22 19  13 32 05.190   +00 39 03.46  2.3940 3.2212 138.3 19.5 3325  76
2024 05 22 20  13 32 03.784   +00 39 01.03  2.3948 3.2216 138.3 19.5 3338  76
2024 05 22 21  13 32 02.380   +00 38 58.60  2.3956 3.2220 138.2 19.5 3350  76
2024 05 22 22  13 32 00.979   +00 38 56.15  2.3964 3.2225 138.2 19.5 3363  76
2024 05 22 23  13 31 59.580   +00 38 53.68  2.3973 3.2229 138.1 19.5 3376  76
2024 05 23 00  13 31 58.184   +00 38 51.21  2.3981 3.2233 138.1 19.5 3389  76
2024 05 23 01  13 31 56.790   +00 38 48.72  2.3989 3.2238 138.1 19.5 3402  76
2024 05 23 02  13 31 55.399   +00 38 46.22  2.3997 3.2242 138.0 19.5 3415  76
2024 05 23 03  13 31 54.011   +00 38 43.70  2.4006 3.2246 138.0 19.5 3428  76
2024 05 23 04  13 31 52.625   +00 38 41.17  2.4014 3.2251 137.9 19.5 3441  76
2024 05 23 05  13 31 51.241   +00 38 38.63  2.4022 3.2255 137.9 19.5 3454  76
2024 05 23 06  13 31 49.860   +00 38 36.07  2.4030 3.2259 137.8 19.5 3467  76
2024 05 23 07  13 31 48.481   +00 38 33.51  2.4039 3.2264 137.8 19.5 3480  76
2024 05 23 08  13 31 47.105   +00 38 30.92  2.4047 3.2268 137.7 19.5 3493  76
2024 05 23 09  13 31 45.732   +00 38 28.33  2.4055 3.2272 137.7 19.5 3506  76
2024 05 23 10  13 31 44.361   +00 38 25.72  2.4063 3.2276 137.7 19.5 3519  76
2024 05 23 11  13 31 42.992   +00 38 23.10  2.4072 3.2281 137.6 19.5 3532  76
2024 05 23 12  13 31 41.626   +00 38 20.47  2.4080 3.2285 137.6 19.5 3545  76
2024 05 23 13  13 31 40.263   +00 38 17.82  2.4088 3.2289 137.5 19.5 3559  76
2024 05 23 14  13 31 38.902   +00 38 15.16  2.4097 3.2294 137.5 19.5 3572  76
2024 05 23 15  13 31 37.543   +00 38 12.48  2.4105 3.2298 137.4 19.5 3585  76
2024 05 23 16  13 31 36.187   +00 38 09.80  2.4113 3.2302 137.4 19.5 3598  76
2024 05 23 17  13 31 34.834   +00 38 07.10  2.4121 3.2307 137.4 19.5 3611  76
2024 05 23 18  13 31 33.483   +00 38 04.39  2.4130 3.2311 137.3 19.5 3625  76
2024 05 23 19  13 31 32.135   +00 38 01.66  2.4138 3.2315 137.3 19.5 3638  76